User: anonymous   Login
Location: Unspecified
(0.0000°N, 0.0000°E)
Time: 19:59:12
(UTC+00:00)
Language:

EGG - Orbit

View from above orbital plane
View from above orbital plane
View from above satellite
View from above satellite

Ground track
Ground track

The orbit data is extracted from the following two-line orbital elements,

1 41933U 98067KV  17268.86760899 +.00028646 +00000-0 +30786-3 0  9990
2 41933 051.6374 247.5125 0003319 308.2254 051.8441 15.63513579039273
Epoch (UTC): 25 September 2017 20:49:21
Eccentricity: 0.0003319
inclination: 51.6374°
perigee height: 375 km
apogee height: 380 km
right ascension of ascending node: 247.5125°
argument of perigee: 308.2254°
revolutions per day: 15.63513579
mean anomaly at epoch: 51.8441°
orbit number at epoch: 3927

The dashed part of the orbit path shows where the satellite is in the earth's shadow,  

DLR